TimeEST,TemperatureF,Dew PointF,Humidity,Sea Level PressureIn,VisibilityMPH,Wind Direction,Wind SpeedMPH,Gust SpeedMPH,PrecipitationIn,Events,Conditions,WindDirDegrees,DateUTC
12:51 AM,30.9,21.0,67,30.36,10.0,Calm,Calm,-,N/A,,Clear,0,2013-01-05 05:51:00
1:51 AM,30.9,21.0,67,30.35,10.0,Calm,Calm,-,N/A,,Clear,0,2013-01-05 06:51:00
2:51 AM,30.0,21.0,69,30.35,10.0,Calm,Calm,-,N/A,,Clear,0,2013-01-05 07:51:00
3:51 AM,30.0,21.9,72,30.35,10.0,Calm,Calm,-,N/A,,Clear,0,2013-01-05 08:51:00
4:51 AM,24.8,21.2,86,30.33,10.0,Calm,Calm,-,N/A,,Clear,0,2013-01-05 09:51:00
5:51 AM,27.0,21.0,78,30.36,10.0,Calm,Calm,-,N/A,,Clear,0,2013-01-05 10:51:00
6:51 AM,24.8,21.2,86,30.35,10.0,Calm,Calm,-,N/A,,Clear,0,2013-01-05 11:51:00
7:51 AM,27.0,23.0,85,30.40,9.0,Calm,Calm,-,N/A,,Clear,0,2013-01-05 12:51:00
8:51 AM,32.0,24.8,75,30.38,9.0,Calm,Calm,-,N/A,,Clear,0,2013-01-05 13:51:00
9:51 AM,37.4,24.8,60,30.39,10.0,Calm,Calm,-,N/A,,Clear,0,2013-01-05 14:51:00
10:51 AM,42.1,21.9,45,30.41,10.0,Calm,Calm,-,N/A,,Clear,0,2013-01-05 15:51:00
11:51 AM,46.0,21.9,39,30.39,10.0,Variable,3.5,-,N/A,,Clear,0,2013-01-05 16:51:00
12:51 PM,48.0,23.0,37,30.36,10.0,Variable,3.5,-,N/A,,Clear,0,2013-01-05 17:51:00
1:51 PM,48.9,21.0,33,30.33,10.0,Variable,3.5,-,N/A,,Clear,0,2013-01-05 18:51:00
2:51 PM,50.0,21.9,33,30.30,10.0,South,3.5,-,N/A,,Clear,170,2013-01-05 19:51:00
3:51 PM,51.1,23.0,33,30.30,10.0,SW,3.5,-,N/A,,Clear,220,2013-01-05 20:51:00
4:51 PM,50.0,24.1,36,30.30,10.0,WSW,3.5,-,N/A,,Clear,240,2013-01-05 21:51:00
5:51 PM,46.9,26.1,44,30.31,10.0,Calm,Calm,-,N/A,,Scattered Clouds,0,2013-01-05 22:51:00
6:51 PM,46.9,27.0,46,30.32,10.0,Calm,Calm,-,N/A,,Mostly Cloudy,0,2013-01-05 23:51:00
7:51 PM,46.0,30.0,54,30.35,10.0,Calm,Calm,-,0.00,Rain,Light Rain,0,2013-01-06 00:51:00
8:51 PM,45.0,34.0,65,30.34,10.0,Calm,Calm,-,0.00,Rain,Light Rain,0,2013-01-06 01:51:00
9:51 PM,44.1,37.9,79,30.30,10.0,Calm,Calm,-,0.00,,Overcast,0,2013-01-06 02:51:00
10:51 PM,43.0,37.9,82,30.27,10.0,Calm,Calm,-,0.00,Rain,Light Rain,0,2013-01-06 03:51:00
11:51 PM,42.8,37.4,81,30.27,10.0,Calm,Calm,-,N/A,,Overcast,0,2013-01-06 04:51:00